www.pogodaiklimat.ru

Погода и климат >> Архив погоды >> Россия >> Тува >> Кызыл


АРХИВ ПОГОДЫ в Кызыле

Время (UTC), дата Ветер
(напр.,м/с)
 
Видим.   Явления Облачность Т
(С)
Тd
(С)
f
(%)
Тe
(С)
Тes
(С)
Комфортность P
(гПа)
Po
(гПа)
Тmin
(С)
Tmax
(С)
R
(мм)
R24
(мм)
S
(см)
00 14.11 СВ 1 10 км 8/3 1000 м
[Sc Ci fib]
-18.0 -20.6 80 -21 -21 прохладно 1045.1 961.0 -19.3 0
03 14.11 СВ 2 20 км 9/0
[Ac trans Ci fib]
-16.4 -19.8 75 -22 -21 холодно 1046.7 963.0
06 14.11 ЮВ 1 20 км 9/0
[Ci sp]
-12.0 -17.2 65 -14 -12 по сезону 1045.1 962.8
09 14.11 ЮВ 1 20 км 9/0
[Ac trans Ci fib]
-10.1 -18.6 50 -12 -12 по сезону 1044.2 962.5
12 14.11 СВ 1 10 км 8/0
[Ci fib]
-12.5 -17.7 65 -15 -15 по сезону 1045.4 963.0 -8.8
15 14.11 СВ 1 10 км 8/0
[Ac trans Ci fib]
-14.1 -18.4 70 -17 -17 по сезону 1046.6 963.5
18 14.11 В 2 10 км 5/0
[Ac trans Ci fib]
-16.8 -19.4 80 -22 -22 прохладно 1047.5 963.5
21 14.11 С 1 10 км 3/0
[Ci fib]
-18.0 -20.6 80 -21 -21 прохладно 1047.6 963.3
00 15.11 СВ 1 10 км 4/0
[Ac trans Ci fib]
-19.3 -21.2 85 -22 -22 прохладно 1047.9 963.1 -19.3 0
03 15.11 СВ 1 20 км 9/0
[Ac trans Ci fib]
-17.9 -19.8 85 -21 -20 холодно 1047.4 963.1 -19.8
06 15.11 штиль 0 20 км 6/0
[Ci fib]
-12.8 -18.0 65 -13 -10 по сезону 1043.4 961.0
09 15.11 З 1 20 км 9/0
[Ac trans Ci fib]
-10.2 -17.5 55 -12 -12 по сезону 1040.3 958.9
12 15.11 ЮЗ 1 10 км 9/0
[Ac trans Ci fib]
-13.8 -19.0 65 -16 -16 по сезону 1041.6 959.1 -9.2
15 15.11 СВ 1 10 км 10/10 1000 м
[Cb cap]
-13.5 -17.8 70 -16 -16 по сезону 1042.0 959.5
18 15.11 В 1 4000 м слабый ливневой снег 10/10 600 м
[Cb cap]
-13.2 -15.9 80 -16 -16 по сезону 1041.0 958.7
21 15.11 В 1 10 км слабый ливневой снег 10/10 600 м
[Cb cap]
-13.3 -15.3 85 -16 -16 по сезону 1039.4 954.1
00 16.11 штиль 0 4000 м слабый снег {ливн. осадки} 10/0
[Ac As]
-12.5 -14.5 85 -13 -13 по сезону 1038.2 956.4 -14.6 2 2
03 16.11 штиль 0 4000 м слабый снег 10/0
[Ac As]
-12.0 -13.3 90 -12 -12 по сезону 1037.8 956.1
06 16.11 Ю 1 1000 м слабый снег 10/0
[Ac As]
-10.5 -12.5 85 -13 -12 по сезону 1035.9 954.8
09 16.11 штиль 0 4000 м слабый снег 10/0
[Ac As]
-10.2 -12.2 85 -11 -10 по сезону 1035.3 954.4
12 16.11 штиль 0 10 км {снег} 9/0
[Ac trans Cs]
-12.7 -14.0 90 -13 -13 по сезону 1036.9 955.1 -9.8 2
15 16.11 ЮЗ 1 10 км 8/0
[Ac trans Ci fib]
-15.8 -16.4 95 -18 -18 по сезону 1039.8 956.8
18 16.11 В 1 4000 м слабый снег 9/0
[Cs]
-18.5 -19.7 90 -21 -21 по сезону 1041.4 957.4
21 16.11 штиль 0 4000 м слабый снег 10/0
[Ac As]
-14.6 -15.2 95 -15 -15 по сезону 1040.6 957.9
00 17.11 ЮЗ 1 10 км {снег} 10/0
[Ac As]
-15.6 -16.2 95 -18 -18 по сезону 1041.6 958.5 -19.0 0.2 3
03 17.11 ЮЗ 1 4000 м слабый снег 9/0
[Ac trans Cs]
-15.7 -16.3 95 -18 -18 по сезону 1041.2 958.2
06 17.11 ЮЗ 1 20 км {снег} 6/3 1000 м
[Sc Ac trans]
-12.5 -16.0 75 -15 -13 по сезону 1039.6 957.6
09 17.11 штиль 0 20 км 6/3 1000 м
[Sc Ac trans]
-12.0 -15.5 75 -12 -12 по сезону 1036.8 955.2
12 17.11 штиль 0 10 км 5/3 1000 м
[Sc Ci fib]
-19.1 -21.0 85 -19 -19 по сезону 1038.1 954.2 -10.9 0.2
15 17.11 штиль 0 10 км 5/0
[Ac trans Ci fib]
-20.9 -22.1 90 -21 -21 прохладно 1036.9 952.5
18 17.11 штиль 0 10 км 9/0
[Cs]
-20.7 -22.6 85 -21 -21 по сезону 1035.8 951.5
21 17.11 В 1 10 км 10/0
[Ac As]
-20.1 -22.0 85 -23 -23 прохладно 1034.5 950.5
00 18.11 СВ 1 10 км 5/0
[Ac trans Ci fib]
-20.7 -22.6 85 -24 -24 прохладно 1034.1 950.0 -21.9 3
03 18.11 В 1 2000 м слабый снег 10/6 1000 м
[Sc Ac As]
-18.7 -19.9 90 -22 -22 прохладно 1033.2 949.8
06 18.11 В 1 4000 м слабый снег 10/5 1000 м
[Sc Ac As]
-15.3 -16.6 90 -18 -17 прохладно 1031.9 949.7
09 18.11 СВ 1 10 км {снег} 9/6 1000 м
[Sc Ac As]
-14.3 -17.0 80 -17 -17 по сезону 1031.2 949.4
12 18.11 С 1 10 км {снег} 9/6 1000 м
[Sc Ac trans]
-16.4 -18.3 85 -19 -19 по сезону 1032.6 950.0 -14.0 0.0
15 18.11 штиль 0 4000 м слабый снег 9/0
[Ac trans Cs]
-16.7 -18.0 90 -17 -17 по сезону 1032.8 950.1
18 18.11 штиль 0 4000 м слабый снег 9/0
[Ac trans Cs]
-20.1 -22.0 85 -20 -20 по сезону 1034.9 950.9
21 18.11 штиль 0 4000 м слабый снег 10/0
[Ac As]
-18.7 -19.9 90 -19 -19 по сезону 1035.1 951.5
00 19.11 штиль 0 4000 м слабый снег 10/0
[Ac As]
-20.6 -22.5 85 -21 -21 по сезону 1037.2 952.9 -20.6 0.4 3
03 19.11 СВ 1 20 км слабый снег 9/0
[Cs]
-18.5 -19.7 90 -21 -21 прохладно 1038.8 955.0 -21.0
06 19.11 СВ 1 20 км {снег} 9/0
[Cs]
-14.8 -19.1 70 -17 -15 по сезону 1038.4 955.8
09 19.11 СВ 1 20 км {снег} 8/0
[Ac trans Ci fib]
-13.6 -17.1 75 -16 -16 по сезону 1039.1 956.8
12 19.11 штиль 0 10 км {снег} 5/0
[Ci fib]
-18.3 -20.2 85 -18 -18 по сезону 1042.0 958.0 -13.4 0.3
15 19.11 СВ 1 4000 м слабый снег 10/0
[Ac As]
-17.3 -19.2 85 -20 -20 по сезону 1042.8 959.1
18 19.11 С 1 4000 м слабый снег 10/0
[Ac As]
-17.2 -19.1 85 -20 -20 по сезону 1042.8 959.1
21 19.11 штиль 0 4000 м слабый снег 10/0
[Ac As]
-17.9 -19.8 85 -18 -18 по сезону 1042.8 958.9
00 20.11 СВ 1 10 км {снег} 9/0
[Ac trans Cs]
-18.5 -19.7 90 -21 -21 по сезону 1042.9 958.8 -18.5 0.2 3
03 20.11 В 2 20 км 9/0
[Ac trans Cs]
-17.3 -19.9 80 -23 -22 прохладно 1042.9 959.2
06 20.11 В 1 20 км 9/0
[Ac trans Cs]
-14.0 -18.3 70 -16 -15 по сезону 1040.5 958.0
09 20.11 штиль 0 20 км 9/4 1000 м
[Sc Ac trans Cs]
-13.1 -16.6 75 -13 -13 по сезону 1038.2 956.2
12 20.11 ЮЗ 1 10 км 9/0
[Ac trans Cs]
-13.9 -17.4 75 -16 -16 по сезону 1037.6 955.4 -12.6
15 20.11 штиль 0 10 км 10/0
[Ac As]
-16.1 -18.8 80 -16 -16 по сезону 1037.8 954.8
18 20.11 штиль 0 10 км 10/0
[Ac As]
-15.8 -18.5 80 -16 -16 по сезону 1037.5 954.7
21 20.11 ЮЗ 1 4000 м слабый снег 10/0
[Ac As]
-15.4 -17.3 85 -18 -18 по сезону 1037.0 954.4

 

Местоположение метеостанции Кызыл (Тува, Россия): широта 51.72 долгота 94.50 высота над уровнем моря 632 м.

В архиве по умолчанию представлена погода в Кызыле за последнюю неделю. Архивные данные за месяц целиком и за предыдущие месяцы, начиная с января 2011 года, Вы можете получить, выбрав интересующий диапазон дат из раскрывающегося списка и нажав кнопку "Ввод!".


*Определитесь, кто Вы:
робот инопланетянин человек

Внимание! Время в таблицах - всемирное. Для получения местного времени необходимо прибавить поправку, которая в Кызыле равна 7 ч.

Смотрите также архив погоды в соседних городах и на ближайших метеорологических станциях:

Погода в Туране (Тува, Россия) (61 км)
Погода в Сосновке (Тува, Россия) (63 км)
Погода в Сарыг-Сепе (Тува, Россия) (78 км)
Погода в Хову-Аксы (Тува, Россия) (81 км)
Погода в Нижнеусинском (Красноярский край, Россия) (118 км)
Погода в Шагонаре (Тува, Россия) (127 км)
Погода в Тоора-Хем (Тува, Россия) (138 км)
Погода в Оленьей Речке (Красноярский край, Россия) (148 км)
Погода в Усть-Усе (Красноярский край, Россия) (159 км)
Погода в Эрзине (Тува, Россия) (167 км)

Пояснения к столбцам:

Ветер - указаны скорость ветра в м/с - средняя за 10 мин, порывы в срок и между сроками (в фигурных скобках) и направление, откуда дует ветер: С - северный, СВ - северо-восточный, В - восточный, ЮВ - юго-восточный, Ю - южный, ЮЗ - юго-западный, З - западный, СЗ - северо-западный.
Видимость - горизонтальная дальность видимости в метрах или километрах. При видимости от 1 до 10 км при отсутствии осадков обычно наблюдается дымка, при ухудшении видимости до 1 км и менее - туман. В сухую погоду видимость может ухудшаться дымом, пылью или мглою.
Явления - указаны атмосферные явления, наблюдавшиеся в срок или в последний час перед сроком; фигурными скобками обозначены явления, наблюдавшиеся между сроками (за 1-3 часа до срока); квадратными скобками обозначены град или гололедные отложения с указанием их диаметра в мм.
Облачность - указаны через наклонную черту общая и нижняя облачность в баллах и высота нижней границы облаков в метрах; квадратными скобками обозначены формы облаков: Ci - перистые, Cs - перисто-слоистые, Cc - перисто-кучевые, Ac - высококучевые, As - высокослоистые, Sc - слоисто-кучевые, Ns - слоисто-дождевые, Cu - кучевые, Cb - кучево-дождевые. Подробнее классификацию облаков см. в Атласе облаков (PDF).
T - Температура воздуха - температура, измеренная на высоте 2 м над землей.
Td - Температура точки росы - температура, при понижении до которой содержащийся в воздухе водяной пар достигнет насыщения.
f - Относительная влажность воздуха - влажноcть воздуха, измеренная на высоте 2 м над землей.
Te - Эффективная температура - температура, которую ощущает одетый по сезону человек в тени. Характеристика душности погоды. При расчете учитывается влияние влажности воздуха и скорости ветра на теплоощущения человека.
Tes - Эффективная температура на солнце - температура, которую ощущает человек, с поправкой на солнечный нагрев. Характеристика знойности погоды. Зависит от высоты солнца над горизонтом, облачности и скорости ветра. Ночью, в пасмурную погоду, а также при ветре 12 м/с и более поправка равна нулю.
P - Атмосферное давление - приведенное к уровню моря атмосферное давление.
Po - Атмосферное давление - измеренное на уровне метеостанции атмосферное давление.
Tmin - Минимальная температура - минимум температуры воздуха на высоте 2 м над землей.
Tmax - Максимальная температура - максимум температуры воздуха на высоте 2 м над землей.
R - Количество осадков - Количество выпавших осадков за период времени, мм. При наведении курсора мыши на число - период времени, за который выпало указанное количество осадков.
R24 - Количество осадков - Количество выпавших осадков за 24 часа, мм.
S - Снежный покров - Высота снежного покрова, см. При наведении курсора мыши на число - состояние снежного покрова и степень покрытия местности в баллах.